[[{"header":{"parameterUnit":"m.s-1","parameterCategory":1,"la1":30.2991,"la2":30.254,"lo1":-89.0895,"lo2":-89.0444,"dy":0.0017,"dx":0.0017,"nx":28,"ny":28,"refTime":"2023-08-22T21:00:00:Z","depth":0,"parameterNumber":2,"parameterNumberName":"U-component_of_WINDS"},"data":[0,0,0,0,0,0,0,0,0,0,0,0,0,0,0,0,0,0,0,0,0,0,0,0,0,0,0,0,0,0,0,0,0,0,0,0,0,0,0,0,0,0,0,0,0,0,0,0,0,0,0,0,0,0,0,0,0,0,2.2019,2.2019,0,2.2038,2.2038,2.2039,2.1993,2.1992,2.199,2.1989,2.2009,2.2011,2.2013,0,0,0,0,0,0,0,0,0,0,0,0,0,2.1944,2.1945,2.2019,2.2019,2.202,2.2038,2.2038,2.2039,2.1994,2.1992,2.199,2.1988,2.2009,2.2011,2.2013,0,0,0,0,0,0,0,0,0,0,0,0,0,2.1971,2.1946,2.2019,2.1999,2.1998,2.2038,2.2038,2.2039,2.1994,2.1992,2.199,2.1988,2.2008,2.2011,2.2014,2.2074,0,0,2.2022,2.2024,0,0,0,0,0,0,0,0,2.197,2.1974,2.2002,2.2001,2.1999,2.2011,2.2019,2.2051,2.1994,2.1995,2.1989,2.1987,2.2012,2.2014,2.2023,2.2075,2.2076,2.2023,2.2024,2.2025,2.2026,0,0,0,0,0,0,0,2.1968,2.1973,2.2027,2.2003,2.2001,2.1989,2.1991,2.2025,2.2016,2.1995,2.1992,2.1995,2.2011,2.202,2.2023,2.2076,2.2022,2.2025,2.2027,2.2028,2.2178,2.2181,0,0,0,0,0,0,2.1968,2.1972,2.2026,2.2027,2.1979,2.1993,2.1994,2.2009,2.2015,2.2014,2.1997,2.1993,2.2016,2.2019,2.2023,2.2093,2.2025,2.2028,2.203,2.2176,2.2179,2.2181,0,0,0,0,0,0,2.1967,2.1974,2.2025,2.1999,2.2004,2.1996,2.2014,2.2011,2.202,2.2016,2.2014,2.2008,2.2015,2.2019,2.2062,2.2093,2.2029,2.2032,2.2173,2.2177,2.218,2.2235,0,0,0,0,0,0,2.1965,2.1973,2.1996,2.1999,2.2006,2.2063,2.2016,2.2013,2.2025,2.202,2.2026,2.2025,2.2013,2.2058,2.2064,2.2096,2.2034,2.217,2.2175,2.2179,2.223,2.224,2.2248,0,0,0,0,0,2.1962,2.2012,2.1998,2.2005,2.2034,2.2065,2.2069,2.2054,2.2028,2.2051,2.2048,2.2025,2.2089,2.2062,2.207,2.2103,2.2168,2.2174,2.2179,2.2226,2.2238,2.2248,0,0,0,0,0,0,2.2013,2.2012,2.1996,2.2048,2.2057,2.2058,2.2086,2.2067,2.2084,2.2079,2.206,2.2062,2.2107,2.2109,2.208,2.2161,2.2124,2.2131,2.2158,2.2169,2.2178,2.2176,2.2036,0,0,0,0,0,2.203,2.2055,2.2053,2.2099,2.2104,2.2094,2.2107,2.2095,2.2104,2.2107,2.2108,2.2117,2.2139,2.2155,2.2175,2.2231,2.2231,2.2257,2.2266,2.2273,2.2279,2.2307,2.2319,2.2198,2.2198,2.2198,0,0,2.2066,2.2068,2.2086,2.2109,2.2114,2.2141,2.2098,2.2128,2.2147,2.2112,2.2151,2.2152,2.2162,2.221,2.2232,2.2214,2.2312,2.228,2.2286,2.2288,2.2314,2.2325,2.2335,2.2202,2.2201,2.2201,0,0,2.2144,2.2149,2.2187,2.2193,2.2202,2.2195,2.2204,2.2208,2.2206,2.2246,2.222,2.2242,2.2281,2.2289,2.2297,2.2378,2.2357,2.2385,2.2431,2.2459,2.2468,2.2477,2.2504,2.2514,2.2391,2.2391,2.2391,0,2.2188,2.2226,2.2209,2.224,2.2251,2.222,2.2258,2.2265,2.228,2.2288,2.2267,2.2314,2.2319,2.2368,2.2388,2.2396,2.2406,2.2384,2.2468,2.2477,2.2484,2.251,2.252,2.2394,2.2394,2.2394,2.2393,0,2.2278,2.2305,2.2335,2.2349,2.2363,2.2398,2.2386,2.2402,2.2389,2.2384,2.2424,2.2428,2.2448,2.2459,2.2446,2.2506,2.2494,2.2472,2.2434,2.2499,2.2523,2.2533,2.2399,2.2398,2.2397,2.2396,0,0,2.2389,2.2393,2.2404,2.2409,2.2416,2.2437,2.247,2.2489,2.2502,2.2514,2.2541,2.2574,2.2552,2.2562,2.255,2.2575,2.2637,2.2549,2.2549,2.2564,2.2702,2.2718,2.273,2.2623,2.2625,2.2627,2.2701,0,2.2465,2.252,2.2506,2.2561,2.2585,2.2556,2.2585,2.2592,2.2589,2.2609,2.2605,2.2628,2.2598,2.2604,2.2627,2.2624,2.2664,2.2619,2.2647,2.2648,2.2644,2.2743,2.276,2.283,2.271,2.2712,2.2713,0,2.2561,2.2575,2.2633,2.2635,2.2644,2.267,2.2686,2.2705,2.2713,2.2708,2.2719,2.2702,2.2734,2.2697,2.2741,2.2711,2.2721,2.2722,2.2724,2.2725,2.2684,2.2745,2.2852,2.2862,2.2728,2.2726,2.2725,0,2.2634,2.2668,2.2706,2.2712,2.2716,2.2734,2.2737,2.2742,2.2754,2.2768,2.2775,2.2793,2.2803,2.2817,2.2805,2.2779,2.285,2.2812,2.2847,2.2847,2.2862,2.2861,2.2971,2.2872,2.2871,2.2871,2.2871,0,2.272,2.2756,2.2739,2.2763,2.2802,2.2785,2.2824,2.2824,2.2828,2.2851,2.2828,2.285,2.2833,2.2853,2.2844,2.2881,2.2886,2.2883,2.288,2.2885,2.2885,2.2891,2.2885,2.2874,2.2873,2.2873,2.2872,0,2.2808,2.2798,2.2838,2.2838,2.2839,2.2868,2.2867,2.2889,2.2884,2.2913,2.2918,2.291,2.2933,2.2922,2.2947,2.294,2.2987,2.2979,2.2985,2.2982,2.3016,2.3013,2.3133,2.3147,2.304,2.3041,2.3042,0,2.2863,2.289,2.2892,2.2906,2.2909,2.2931,2.2943,2.2927,2.294,2.295,2.2971,2.2991,2.3007,2.3044,2.3041,2.3059,2.3049,2.309,2.3052,2.3055,2.3049,2.3047,2.3049,2.3098,2.3099,2.31,2.3101,0,2.2961,2.2955,2.2972,2.2988,2.3002,2.3014,2.3024,2.3036,2.3021,2.3037,2.3059,2.3071,2.3095,2.3116,2.3132,2.3134,2.3115,2.3113,2.3122,2.3126,2.3128,2.3126,2.3004,2.311,2.3109,2.3108,2.3108,2.3108,2.3034,2.3056,2.306,2.308,2.3086,2.3095,2.3115,2.3112,2.313,2.3148,2.3138,2.3164,2.317,2.3189,2.3194,2.3214,2.3198,2.3211,2.3214,2.3217,2.3221,2.3125,2.3217,2.3217,2.3217,2.3216,2.3216,0,2.3129,2.3131,2.3149,2.3163,2.3179,2.3159,2.3169,2.3183,2.3206,2.3213,2.3229,2.3254,2.3274,2.3271,2.3289,2.3305,2.3297,2.3311,2.3309,2.3309,2.3235,2.3225,2.3317,2.3317,2.3317,2.3317,2.3317,2.3317,2.3181,2.3217,2.3211,2.3249,2.325,2.3275,2.3282,2.329,2.3295,2.3324,2.334,2.3338,2.3341,2.3359,2.3376,2.3375,2.3382,2.3399,2.3394,2.3325,2.3315,2.3305,2.3296,2.3401,2.3401,2.3466,2.3467,2.3467]},{"header":{"parameterUnit":"m.s-1","parameterCategory":1,"la1":30.2991,"la2":30.254,"lo1":-89.0895,"lo2":-89.0444,"dy":0.0017,"dx":0.0017,"nx":28,"ny":28,"refTime":"2023-08-22T21:00:00:Z","depth":0,"parameterNumber":3,"parameterNumberName":"V-component_of_WINDS"},"data":[0,0,0,0,0,0,0,0,0,0,0,0,0,0,0,0,0,0,0,0,0,0,0,0,0,0,0,0,0,0,0,0,0,0,0,0,0,0,0,0,0,0,0,0,0,0,0,0,0,0,0,0,0,0,0,0,0,0,1.2131,1.213,0,1.2007,1.2005,1.2004,1.1929,1.1929,1.1929,1.1929,1.1793,1.179,1.1787,0,0,0,0,0,0,0,0,0,0,0,0,0,1.2297,1.2294,1.2131,1.213,1.2128,1.2007,1.2005,1.2003,1.193,1.1929,1.1929,1.1928,1.1794,1.179,1.1786,0,0,0,0,0,0,0,0,0,0,0,0,0,1.2204,1.2293,1.2131,1.2077,1.2071,1.2007,1.2005,1.2003,1.193,1.1929,1.1929,1.1928,1.1796,1.1791,1.1786,1.1765,0,0,1.1771,1.1768,0,0,0,0,0,0,0,0,1.2209,1.2198,1.2086,1.208,1.2073,1.1983,1.2014,1.1923,1.193,1.1983,1.1929,1.1928,1.1856,1.1846,1.1824,1.1758,1.1752,1.177,1.1767,1.1765,1.1764,0,0,0,0,0,0,0,1.2216,1.2202,1.2082,1.2085,1.2077,1.2056,1.2042,1.1996,1.1923,1.1978,1.1973,1.1959,1.1853,1.1829,1.182,1.175,1.177,1.1766,1.1763,1.1761,1.166,1.166,0,0,0,0,0,0,1.2232,1.2208,1.2086,1.2078,1.2142,1.2053,1.2038,1.2013,1.1924,1.191,1.196,1.1956,1.1837,1.1826,1.1815,1.1783,1.1765,1.176,1.1758,1.1659,1.166,1.166,0,0,0,0,0,0,1.2236,1.2222,1.2091,1.2142,1.2123,1.2051,1.2023,1.201,1.1986,1.191,1.1896,1.1949,1.1837,1.1822,1.1778,1.1778,1.1758,1.1754,1.1659,1.166,1.166,1.1721,0,0,0,0,0,0,1.2241,1.2223,1.2217,1.2142,1.2121,1.2058,1.2023,1.2008,1.1979,1.1973,1.1896,1.1883,1.1835,1.1786,1.1773,1.1771,1.175,1.1659,1.1659,1.166,1.1719,1.1724,1.1728,0,0,0,0,0,1.2247,1.2237,1.2217,1.2202,1.2111,1.2059,1.2046,1.1993,1.198,1.1971,1.1921,1.1886,1.178,1.1782,1.1767,1.1763,1.1658,1.1659,1.166,1.1717,1.1723,1.1728,0,0,0,0,0,0,1.2311,1.2226,1.2203,1.2169,1.2122,1.2046,1.2034,1.2001,1.1955,1.1951,1.1885,1.1868,1.183,1.1792,1.1796,1.1737,1.1715,1.1713,1.1764,1.1769,1.1773,1.1782,1.1746,0,0,0,0,0,1.2322,1.2289,1.2215,1.2193,1.2171,1.2107,1.2081,1.2045,1.1992,1.1971,1.1918,1.1866,1.1821,1.1793,1.1747,1.1713,1.1694,1.1703,1.1707,1.1711,1.171,1.1687,1.169,1.1662,1.1662,1.1662,0,0,1.2342,1.2292,1.2275,1.2204,1.2163,1.2128,1.209,1.2054,1.2026,1.1964,1.1921,1.188,1.1817,1.1778,1.1758,1.1745,1.1713,1.1712,1.1716,1.1712,1.1688,1.1691,1.1694,1.1663,1.1663,1.1663,0,0,1.2362,1.2322,1.2298,1.2258,1.2198,1.2155,1.215,1.2079,1.2051,1.2006,1.1959,1.1923,1.1847,1.1804,1.1773,1.1776,1.1741,1.1763,1.1786,1.1765,1.1767,1.1769,1.1769,1.177,1.1762,1.1762,1.1762,0,1.2394,1.2342,1.2289,1.2257,1.2226,1.2172,1.2146,1.2109,1.2035,1.2014,1.2001,1.1905,1.1859,1.1808,1.1809,1.1786,1.1775,1.1771,1.1772,1.1773,1.1773,1.1773,1.1773,1.1765,1.1765,1.1764,1.1764,0,1.2384,1.2349,1.2336,1.227,1.2238,1.2209,1.2149,1.2123,1.2089,1.2047,1.2001,1.1944,1.1886,1.1871,1.1837,1.1815,1.1809,1.1785,1.1761,1.178,1.1778,1.1778,1.1769,1.1768,1.1767,1.1767,0,0,1.244,1.2346,1.2342,1.2311,1.2241,1.221,1.2178,1.2123,1.2101,1.2052,1.2022,1.1959,1.1936,1.19,1.186,1.1843,1.1848,1.182,1.1817,1.1826,1.1818,1.1837,1.1837,1.1824,1.1824,1.1824,1.1823,0,1.2449,1.2391,1.2342,1.2301,1.2266,1.2214,1.2185,1.2137,1.2097,1.2059,1.2013,1.197,1.1944,1.1922,1.1902,1.1852,1.1845,1.1851,1.1793,1.1791,1.181,1.1836,1.1855,1.1858,1.1822,1.1822,1.1822,0,1.2451,1.2407,1.2364,1.2296,1.228,1.2255,1.2201,1.2167,1.211,1.2082,1.2043,1.2001,1.1962,1.1943,1.1886,1.1892,1.1865,1.1836,1.1835,1.1827,1.1807,1.1828,1.1857,1.1858,1.1821,1.1821,1.1821,0,1.2495,1.2424,1.2389,1.2364,1.2285,1.2269,1.2234,1.2178,1.2148,1.21,1.2079,1.2026,1.1997,1.1955,1.19,1.1892,1.1848,1.1825,1.1821,1.1823,1.1814,1.1815,1.1839,1.1799,1.1799,1.1799,1.1799,0,1.2509,1.2484,1.2408,1.2386,1.2356,1.2299,1.2269,1.223,1.218,1.2148,1.2098,1.2068,1.1998,1.1958,1.1914,1.1873,1.186,1.1834,1.1823,1.1838,1.1842,1.1819,1.1817,1.1799,1.1799,1.1799,1.1799,0,1.2553,1.2501,1.2459,1.2388,1.237,1.235,1.2288,1.2263,1.2221,1.218,1.2167,1.21,1.2051,1.1992,1.1923,1.1894,1.1856,1.1839,1.1876,1.1869,1.1869,1.1869,1.1878,1.1875,1.1839,1.1839,1.1839,0,1.2565,1.2545,1.2472,1.2449,1.2417,1.2379,1.2349,1.2291,1.2261,1.2196,1.2178,1.2127,1.2082,1.2006,1.1948,1.1895,1.1876,1.1883,1.1867,1.1883,1.1874,1.1876,1.1873,1.1886,1.1887,1.1888,1.1888,0,1.2591,1.2567,1.2527,1.2478,1.2445,1.2403,1.2358,1.2341,1.2274,1.2242,1.2193,1.2159,1.209,1.2038,1.1978,1.1939,1.1901,1.1894,1.189,1.1905,1.1927,1.1914,1.1886,1.1893,1.1893,1.1893,1.1892,1.1892,1.2618,1.2598,1.2544,1.2501,1.2462,1.2422,1.2396,1.2351,1.231,1.2251,1.2219,1.217,1.2113,1.2028,1.1991,1.195,1.1937,1.1932,1.193,1.1929,1.1934,1.1935,1.1939,1.1939,1.1938,1.1938,1.1938,0,1.2641,1.2605,1.2566,1.2507,1.2472,1.2444,1.2393,1.2365,1.2324,1.2275,1.2233,1.2176,1.2125,1.2064,1.2009,1.1988,1.1969,1.1975,1.1975,1.1967,1.1949,1.1958,1.1991,1.1991,1.1991,1.1991,1.1991,1.1991,1.2649,1.2613,1.2582,1.2525,1.2487,1.2442,1.2415,1.2377,1.2338,1.2277,1.2236,1.2198,1.2143,1.2084,1.2035,1.2018,1.2,1.2011,1.1989,1.1973,1.1968,1.1964,1.1971,1.2007,1.2007,1.2009,1.2009,1.2009]}]]